QPF
0.04 0.05 0.05 0.04 0.03 0.03 0.04 0.04 0.03 0.03 0.04 0.05 0.03 0.03 0.03 0.04 0.03 0.03 0.03 0.02 0.03 0.04 0.04 0.04 0.04 0.05 0.05 0.05 0.06 0.06 0.05 0.04 0.04 0.05 0.06 0.07 0.07 0.07 0.09 0.09 0.09 0.10 0.09
0.04 0.04 0.04 0.04 0.03 0.04 0.05 0.05 0.05 0.04 0.05 0.05 0.05 0.06 0.05 0.03 0.03 0.02 0.02 0.03 0.04 0.05 0.05 0.05 0.06 0.06 0.06 0.05 0.05 0.05 0.05 0.05 0.04 0.05 0.05 0.06 0.07 0.08 0.09 0.09 0.10 0.12 0.10
0.03 0.04 0.04 0.03 0.03 0.03 0.04 0.05 0.05 0.04 0.04 0.04 0.04 0.05 0.05 0.04 0.04 0.03 0.02 0.03 0.04 0.05 0.05 0.06 0.07 0.06 0.06 0.07 0.06 0.06 0.07 0.06 0.06 0.05 0.05 0.06 0.06 0.06 0.07 0.07 0.07 0.09 0.09
0.03 0.04 0.05 0.04 0.03 0.03 0.04 0.04 0.04 0.03 0.03 0.04 0.03 0.03 0.03 0.03 0.02 0.02 0.02 0.02 0.03 0.05 0.06 0.06 0.07 0.06 0.06 0.07 0.08 0.07 0.09 0.08 0.06 0.06 0.07 0.07 0.05 0.05 0.05 0.05 0.06 0.07 0.09
0.03 0.04 0.06 0.05 0.03 0.03 0.03 0.02 0.02 0.02 0.03 0.04 0.03 0.02 0.02 0.02 0.02 0.02 0.02 0.02 0.02 0.03 0.05 0.06 0.06 0.06 0.06 0.07 0.07 0.06 0.08 0.09 0.08 0.07 0.07 0.07 0.05 0.05 0.07 0.07 0.07 0.08 0.09
0.05 0.04 0.04 0.04 0.03 0.03 0.03 0.03 0.03 0.03 0.03 0.04 0.02 0.02 0.02 0.02 0.02 0.02 0.02 0.02 0.02 0.01 0.03 0.04 0.07 0.06 0.06 0.06 0.06 0.06 0.07 0.09 0.11 0.09 0.07 0.06 0.06 0.06 0.07 0.09 0.09 0.09 0.09
0.06 0.06 0.05 0.06 0.05 0.04 0.04 0.03 0.04 0.03 0.03 0.03 0.04 0.03 0.02 0.01 0.01 0.01 0.01 0.01 0.02 0.02 0.03 0.04 0.05 0.06 0.06 0.05 0.04 0.04 0.05 0.07 0.09 0.09 0.09 0.07 0.07 0.05 0.05 0.07 0.08 0.08 0.08
0.07 0.08 0.09 0.07 0.06 0.07 0.06 0.05 0.05 0.05 0.04 0.03 0.04 0.04 0.04 0.03 0.01 0.00 0.01 0.02 0.02 0.03 0.03 0.03 0.03 0.05 0.05 0.05 0.05 0.04 0.04 0.05 0.06 0.08 0.09 0.08 0.06 0.04 0.04 0.05 0.06 0.06 0.06
0.08 0.09 0.08 0.05 0.05 0.05 0.05 0.06 0.05 0.06 0.05 0.03 0.03 0.05 0.05 0.04 0.03 0.01 0.00 0.01 0.01 0.03 0.03 0.03 0.02 0.03 0.04 0.06 0.06 0.04 0.03 0.05 0.07 0.09 0.08 0.08 0.06 0.03 0.03 0.05 0.05 0.05 0.06
0.07 0.06 0.06 0.06 0.06 0.06 0.06 0.04 0.04 0.05 0.04 0.04 0.03 0.04 0.05 0.04 0.03 0.02 0.01 0.01 0.01 0.01 0.02 0.03 0.03 0.03 0.04 0.06 0.08 0.07 0.06 0.06 0.07 0.06 0.05 0.07 0.08 0.06 0.05 0.05 0.04 0.05 0.06
0.05 0.03 0.03 0.04 0.04 0.04 0.04 0.04 0.03 0.03 0.03 0.04 0.04 0.04 0.03 0.03 0.02 0.02 0.03 0.02 0.01 0.01 0.01 0.02 0.04 0.06 0.08 0.08 0.09 0.09 0.10 0.09 0.07 0.05 0.05 0.07 0.07 0.07 0.06 0.06 0.07 0.08 0.08
0.04 0.03 0.03 0.03 0.02 0.03 0.04 0.04 0.03 0.03 0.04 0.04 0.05 0.04 0.03 0.04 0.03 0.03 0.03 0.03 0.02 0.01 0.02 0.03 0.05 0.06 0.08 0.11 0.10 0.12 0.13 0.12 0.08 0.05 0.05 0.06 0.07 0.08 0.08 0.08 0.09 0.09 0.09
0.03 0.03 0.02 0.03 0.02 0.02 0.02 0.03 0.03 0.03 0.04 0.04 0.04 0.03 0.03 0.03 0.03 0.03 0.04 0.03 0.02 0.02 0.02 0.03 0.05 0.07 0.09 0.12 0.15 0.19 0.19 0.15 0.10 0.08 0.07 0.07 0.08 0.08 0.06 0.08 0.09 0.09 0.12
0.02 0.03 0.03 0.03 0.02 0.02 0.02 0.02 0.01 0.02 0.03 0.04 0.03 0.03 0.03 0.02 0.03 0.04 0.04 0.04 0.02 0.02 0.03 0.04 0.05 0.07 0.09 0.14 0.18 0.21 0.22 0.19 0.13 0.10 0.08 0.08 0.10 0.09 0.06 0.07 0.10 0.14 0.12
0.02 0.02 0.02 0.02 0.01 0.01 0.02 0.03 0.03 0.02 0.02 0.03 0.03 0.03 0.03 0.03 0.02 0.03 0.03 0.03 0.03 0.04 0.04 0.05 0.05 0.07 0.09 0.11 0.15 0.17 0.17 0.15 0.13 0.11 0.09 0.08 0.08 0.07 0.06 0.07 0.11 0.13 0.08
0.01 0.02 0.01 0.01 0.01 0.01 0.02 0.02 0.02 0.02 0.02 0.03 0.03 0.02 0.03 0.03 0.03 0.03 0.03 0.03 0.03 0.04 0.05 0.05 0.05 0.06 0.07 0.07 0.11 0.11 0.11 0.11 0.10 0.08 0.07 0.06 0.06 0.06 0.05 0.05 0.06 0.06 0.06
0.01 0.01 0.02 0.01 0.01 0.01 0.01 0.02 0.02 0.02 0.03 0.03 0.02 0.03 0.03 0.04 0.04 0.03 0.04 0.05 0.05 0.05 0.05 0.04 0.05 0.05 0.05 0.07 0.08 0.07 0.07 0.07 0.07 0.06 0.05 0.04 0.04 0.05 0.05 0.04 0.04 0.05 0.06
0.01 0.01 0.01 0.02 0.01 0.01 0.01 0.01 0.01 0.02 0.03 0.04 0.03 0.02 0.03 0.03 0.04 0.04 0.04 0.04 0.05 0.05 0.05 0.05 0.03 0.03 0.04 0.05 0.06 0.06 0.05 0.05 0.05 0.04 0.04 0.03 0.04 0.05 0.05 0.05 0.05 0.05 0.05
0.01 0.01 0.01 0.01 0.01 0.01 0.01 0.01 0.02 0.02 0.03 0.03 0.02 0.02 0.02 0.02 0.02 0.03 0.03 0.04 0.04 0.03 0.03 0.04 0.03 0.03 0.03 0.04 0.05 0.05 0.04 0.04 0.04 0.03 0.04 0.04 0.05 0.05 0.05 0.05 0.05 0.05 0.06
0.01 0.01 0.01 0.01 0.01 0.02 0.02 0.02 0.04 0.03 0.02 0.02 0.03 0.03 0.02 0.03 0.03 0.03 0.03 0.04 0.04 0.04 0.03 0.02 0.02 0.03 0.03 0.04 0.05 0.04 0.05 0.04 0.03 0.02 0.03 0.04 0.06 0.08 0.06 0.04 0.04 0.05 0.07
0.02 0.02 0.02 0.02 0.02 0.02 0.02 0.03 0.04 0.03 0.02 0.02 0.02 0.02 0.02 0.02 0.02 0.02 0.02 0.03 0.04 0.04 0.03 0.02 0.02 0.02 0.03 0.03 0.04 0.04 0.04 0.05 0.04 0.03 0.04 0.05 0.05 0.07 0.09 0.07 0.05 0.05 0.06
0.02 0.02 0.01 0.02 0.02 0.01 0.02 0.04 0.03 0.03 0.02 0.03 0.03 0.02 0.02 0.02 0.02 0.02 0.01 0.02 0.02 0.02 0.03 0.03 0.03 0.03 0.03 0.04 0.04 0.04 0.04 0.05 0.05 0.05 0.05 0.06 0.06 0.07 0.08 0.08 0.08 0.07 0.07
0.02 0.01 0.01 0.01 0.01 0.01 0.01 0.02 0.03 0.02 0.02 0.02 0.02 0.02 0.02 0.02 0.02 0.02 0.02 0.02 0.02 0.02 0.02 0.03 0.03 0.03 0.03 0.04 0.05 0.04 0.04 0.04 0.04 0.03 0.03 0.05 0.05 0.06 0.05 0.05 0.06 0.06 0.05
0.01 0.01 0.01 0.01 0.01 0.01 0.01 0.03 0.02 0.02 0.01 0.01 0.01 0.02 0.02 0.02 0.01 0.01 0.02 0.02 0.02 0.01 0.02 0.02 0.02 0.03 0.03 0.04 0.05 0.05 0.06 0.05 0.03 0.02 0.02 0.03 0.03 0.03 0.03 0.04 0.05 0.04 0.03
0.01 0.01 0.01 0.01 0.01 0.01 0.01 0.01 0.01 0.01 0.01 0.01 0.01 0.01 0.01 0.01 0.01 0.02 0.01 0.01 0.01 0.01 0.01 0.02 0.03 0.03 0.04 0.04 0.04 0.05 0.05 0.05 0.04 0.03 0.02 0.03 0.03 0.03 0.03 0.04 0.03 0.03 0.03
0.01 0.01 0.01 0.00 0.00 0.00 0.01 0.01 0.01 0.01 0.01 0.00 0.01 0.01 0.01 0.02 0.03 0.03 0.02 0.01 0.01 0.01 0.01 0.02 0.04 0.05 0.05 0.07 0.09 0.08 0.09 0.10 0.08 0.06 0.05 0.05 0.04 0.04 0.05 0.04 0.03 0.02 0.02
MSLP
1015.74 1015.71 1015.68 1015.65 1015.66 1015.71 1015.81 1015.93 1016.06 1016.17 1016.23 1016.24 1016.22 1016.19 1016.19 1016.27 1016.43 1016.68 1017.00 1017.33 1017.62 1017.81 1017.87 1017.80 1017.62 1017.36 1017.08 1016.84 1016.66 1016.55 1016.51 1016.51 1016.50 1016.48 1016.43 1016.37 1016.31 1016.30 1016.37 1016.54 1016.81 1017.17 1017.58
1015.95 1015.95 1015.94 1015.93 1015.95 1016.01 1016.12 1016.25 1016.39 1016.52 1016.62 1016.67 1016.68 1016.69 1016.71 1016.77 1016.90 1017.10 1017.33 1017.57 1017.78 1017.91 1017.94 1017.88 1017.72 1017.51 1017.28 1017.07 1016.88 1016.72 1016.57 1016.40 1016.21 1015.99 1015.74 1015.51 1015.33 1015.25 1015.31 1015.53 1015.90 1016.39 1016.96
1016.11 1016.13 1016.14 1016.15 1016.19 1016.26 1016.37 1016.51 1016.66 1016.81 1016.93 1017.02 1017.07 1017.11 1017.14 1017.19 1017.28 1017.41 1017.57 1017.73 1017.86 1017.94 1017.96 1017.91 1017.80 1017.65 1017.48 1017.30 1017.10 1016.87 1016.60 1016.26 1015.87 1015.42 1014.97 1014.56 1014.25 1014.10 1014.15 1014.43 1014.90 1015.52 1016.24
1016.23 1016.27 1016.29 1016.32 1016.37 1016.44 1016.55 1016.70 1016.86 1017.02 1017.16 1017.27 1017.35 1017.40 1017.44 1017.48 1017.54 1017.62 1017.70 1017.79 1017.87 1017.91 1017.92 1017.90 1017.85 1017.76 1017.64 1017.49 1017.28 1016.99 1016.60 1016.11 1015.52 1014.87 1014.22 1013.65 1013.22 1013.01 1013.05 1013.37 1013.93 1014.67 1015.51
1016.32 1016.36 1016.40 1016.44 1016.50 1016.58 1016.69 1016.83 1016.99 1017.14 1017.29 1017.41 1017.50 1017.56 1017.61 1017.65 1017.68 1017.71 1017.75 1017.79 1017.81 1017.84 1017.85 1017.85 1017.84 1017.81 1017.75 1017.62 1017.41 1017.08 1016.60 1015.98 1015.24 1014.44 1013.64 1012.93 1012.41 1012.15 1012.18 1012.52 1013.13 1013.94 1014.86
1016.38 1016.42 1016.47 1016.52 1016.59 1016.68 1016.80 1016.92 1017.07 1017.21 1017.33 1017.45 1017.54 1017.61 1017.65 1017.69 1017.71 1017.72 1017.73 1017.73 1017.73 1017.74 1017.75 1017.77 1017.80 1017.81 1017.79 1017.70 1017.50 1017.15 1016.63 1015.94 1015.12 1014.22 1013.33 1012.55 1011.96 1011.66 1011.67 1012.00 1012.62 1013.45 1014.39
1016.41 1016.45 1016.50 1016.57 1016.65 1016.75 1016.87 1016.98 1017.10 1017.21 1017.32 1017.41 1017.48 1017.55 1017.60 1017.64 1017.66 1017.67 1017.67 1017.65 1017.64 1017.63 1017.64 1017.67 1017.72 1017.77 1017.79 1017.73 1017.56 1017.23 1016.72 1016.04 1015.20 1014.28 1013.37 1012.56 1011.95 1011.62 1011.60 1011.90 1012.48 1013.26 1014.15
1016.39 1016.41 1016.47 1016.55 1016.66 1016.77 1016.89 1017.00 1017.09 1017.17 1017.24 1017.29 1017.35 1017.41 1017.46 1017.51 1017.55 1017.57 1017.57 1017.56 1017.54 1017.52 1017.53 1017.56 1017.62 1017.68 1017.74 1017.72 1017.60 1017.34 1016.89 1016.27 1015.49 1014.63 1013.76 1012.98 1012.38 1012.03 1011.97 1012.21 1012.71 1013.39 1014.18
1016.28 1016.29 1016.35 1016.45 1016.58 1016.71 1016.83 1016.93 1017.00 1017.05 1017.08 1017.10 1017.14 1017.18 1017.24 1017.30 1017.36 1017.41 1017.43 1017.43 1017.42 1017.40 1017.39 1017.42 1017.48 1017.56 1017.64 1017.68 1017.64 1017.46 1017.12 1016.62 1015.97 1015.22 1014.45 1013.74 1013.18 1012.82 1012.72 1012.88 1013.26 1013.81 1014.46
1016.05 1016.04 1016.10 1016.22 1016.37 1016.52 1016.65 1016.74 1016.80 1016.82 1016.81 1016.81 1016.82 1016.85 1016.92 1017.00 1017.09 1017.17 1017.22 1017.24 1017.24 1017.22 1017.21 1017.24 1017.30 1017.39 1017.51 1017.60 1017.64 1017.58 1017.38 1017.03 1016.54 1015.94 1015.31 1014.71 1014.20 1013.86 1013.72 1013.78 1014.04 1014.44 1014.93
1015.70 1015.67 1015.72 1015.84 1016.01 1016.17 1016.31 1016.40 1016.44 1016.44 1016.41 1016.38 1016.37 1016.41 1016.48 1016.59 1016.71 1016.82 1016.90 1016.95 1016.97 1016.96 1016.96 1016.98 1017.05 1017.16 1017.31 1017.48 1017.60 1017.66 1017.61 1017.43 1017.11 1016.69 1016.21 1015.73 1015.30 1014.98 1014.81 1014.80 1014.93 1015.19 1015.53
1015.23 1015.17 1015.21 1015.33 1015.49 1015.66 1015.80 1015.88 1015.91 1015.89 1015.84 1015.80 1015.79 1015.82 1015.91 1016.04 1016.19 1016.34 1016.45 1016.53 1016.58 1016.59 1016.60 1016.64 1016.73 1016.87 1017.07 1017.29 1017.51 1017.69 1017.78 1017.76 1017.62 1017.37 1017.04 1016.69 1016.35 1016.07 1015.88 1015.81 1015.85 1015.99 1016.20
1014.68 1014.58 1014.60 1014.70 1014.85 1015.00 1015.13 1015.20 1015.21 1015.18 1015.12 1015.07 1015.06 1015.11 1015.21 1015.36 1015.54 1015.71 1015.87 1015.98 1016.06 1016.11 1016.15 1016.22 1016.34 1016.52 1016.77 1017.06 1017.37 1017.65 1017.87 1017.99 1018.00 1017.91 1017.72 1017.49 1017.24 1017.02 1016.85 1016.75 1016.74 1016.79 1016.90
1014.07 1013.95 1013.93 1014.00 1014.11 1014.23 1014.33 1014.38 1014.38 1014.33 1014.28 1014.23 1014.23 1014.28 1014.40 1014.57 1014.77 1014.98 1015.16 1015.31 1015.43 1015.52 1015.61 1015.73 1015.90 1016.14 1016.45 1016.81 1017.19 1017.56 1017.88 1018.11 1018.25 1018.28 1018.23 1018.11 1017.96 1017.80 1017.67 1017.58 1017.55 1017.56 1017.61
1013.47 1013.32 1013.26 1013.28 1013.33 1013.41 1013.46 1013.48 1013.46 1013.41 1013.35 1013.31 1013.32 1013.39 1013.52 1013.71 1013.93 1014.16 1014.37 1014.56 1014.72 1014.86 1015.01 1015.20 1015.43 1015.74 1016.11 1016.54 1016.99 1017.43 1017.82 1018.15 1018.37 1018.51 1018.56 1018.54 1018.49 1018.42 1018.35 1018.30 1018.28 1018.28 1018.32
1012.93 1012.74 1012.63 1012.58 1012.58 1012.58 1012.58 1012.56 1012.51 1012.45 1012.40 1012.37 1012.40 1012.49 1012.63 1012.83 1013.06 1013.31 1013.54 1013.76 1013.96 1014.17 1014.39 1014.64 1014.96 1015.35 1015.79 1016.28 1016.78 1017.27 1017.72 1018.10 1018.40 1018.61 1018.74 1018.82 1018.86 1018.87 1018.89 1018.91 1018.93 1018.97 1019.01
1012.47 1012.25 1012.08 1011.96 1011.87 1011.81 1011.75 1011.68 1011.60 1011.53 1011.48 1011.47 1011.51 1011.61 1011.77 1011.98 1012.21 1012.46 1012.71 1012.96 1013.20 1013.46 1013.75 1014.09 1014.49 1014.95 1015.47 1016.02 1016.57 1017.10 1017.58 1017.99 1018.33 1018.59 1018.79 1018.95 1019.08 1019.19 1019.30 1019.40 1019.49 1019.58 1019.65
1012.11 1011.84 1011.61 1011.42 1011.25 1011.11 1010.99 1010.87 1010.76 1010.68 1010.63 1010.63 1010.68 1010.79 1010.96 1011.16 1011.39 1011.64 1011.89 1012.16 1012.44 1012.76 1013.11 1013.53 1014.01 1014.54 1015.12 1015.72 1016.32 1016.87 1017.37 1017.81 1018.17 1018.47 1018.72 1018.95 1019.16 1019.36 1019.57 1019.76 1019.94 1020.10 1020.22
1011.83 1011.51 1011.22 1010.95 1010.72 1010.50 1010.31 1010.15 1010.01 1009.91 1009.86 1009.86 1009.92 1010.03 1010.19 1010.38 1010.60 1010.83 1011.09 1011.37 1011.67 1012.03 1012.44 1012.92 1013.47 1014.08 1014.71 1015.36 1015.98 1016.56 1017.07 1017.52 1017.89 1018.22 1018.52 1018.80 1019.09 1019.38 1019.68 1019.97 1020.24 1020.47 1020.66
1011.61 1011.24 1010.89 1010.56 1010.25 1009.97 1009.73 1009.51 1009.34 1009.22 1009.15 1009.15 1009.20 1009.30 1009.44 1009.61 1009.81 1010.03 1010.27 1010.55 1010.87 1011.26 1011.71 1012.24 1012.85 1013.50 1014.19 1014.86 1015.51 1016.11 1016.63 1017.08 1017.48 1017.83 1018.16 1018.50 1018.85 1019.23 1019.62 1020.00 1020.36 1020.68 1020.94
1011.42 1011.00 1010.60 1010.21 1009.85 1009.51 1009.21 1008.95 1008.74 1008.59 1008.50 1008.47 1008.50 1008.57 1008.69 1008.84 1009.01 1009.20 1009.42 1009.69 1010.02 1010.41 1010.90 1011.46 1012.10 1012.79 1013.51 1014.21 1014.88 1015.49 1016.03 1016.49 1016.90 1017.28 1017.65 1018.03 1018.45 1018.90 1019.37 1019.85 1020.30 1020.70 1021.04
1011.23 1010.77 1010.33 1009.90 1009.49 1009.11 1008.76 1008.45 1008.20 1008.00 1007.88 1007.81 1007.80 1007.84 1007.92 1008.03 1008.16 1008.33 1008.53 1008.77 1009.09 1009.49 1009.98 1010.56 1011.22 1011.93 1012.67 1013.39 1014.08 1014.71 1015.26 1015.75 1016.18 1016.59 1016.99 1017.42 1017.89 1018.41 1018.95 1019.51 1020.05 1020.54 1020.98
1011.03 1010.54 1010.07 1009.62 1009.18 1008.76 1008.37 1008.01 1007.71 1007.46 1007.28 1007.16 1007.11 1007.10 1007.13 1007.20 1007.29 1007.42 1007.59 1007.81 1008.11 1008.50 1008.98 1009.56 1010.22 1010.94 1011.69 1012.43 1013.14 1013.79 1014.37 1014.88 1015.34 1015.79 1016.23 1016.71 1017.22 1017.79 1018.40 1019.02 1019.64 1020.23 1020.76
1010.83 1010.34 1009.86 1009.39 1008.92 1008.47 1008.04 1007.64 1007.28 1006.97 1006.73 1006.55 1006.44 1006.37 1006.36 1006.37 1006.42 1006.51 1006.64 1006.84 1007.11 1007.47 1007.93 1008.49 1009.15 1009.86 1010.62 1011.37 1012.10 1012.77 1013.39 1013.94 1014.45 1014.93 1015.41 1015.93 1016.49 1017.10 1017.75 1018.44 1019.13 1019.79 1020.41
1010.67 1010.17 1009.69 1009.22 1008.74 1008.27 1007.80 1007.35 1006.93 1006.57 1006.26 1006.01 1005.83 1005.70 1005.63 1005.59 1005.60 1005.64 1005.74 1005.89 1006.13 1006.46 1006.89 1007.43 1008.06 1008.76 1009.52 1010.28 1011.03 1011.74 1012.39 1012.99 1013.54 1014.07 1014.59 1015.14 1015.74 1016.38 1017.06 1017.79 1018.53 1019.26 1019.95
1010.55 1010.07 1009.60 1009.13 1008.65 1008.16 1007.66 1007.16 1006.70 1006.27 1005.89 1005.58 1005.33 1005.14 1005.00 1004.91 1004.87 1004.87 1004.92 1005.03 1005.23 1005.51 1005.91 1006.41 1007.01 1007.69 1008.44 1009.21 1009.98 1010.72 1011.42 1012.07 1012.67 1013.24 1013.81 1014.38 1015.00 1015.65 1016.36 1017.10 1017.86 1018.63 1019.38
Thickness
5766 5765 5764 5763 5765 5764 5763 5762 5761 5760 5760 5760 5761 5761 5760 5760 5759 5758 5755 5751 5748 5747 5745 5744 5743 5742 5741 5741 5740 5739 5738 5736 5735 5734 5733 5732 5731 5729 5728 5726 5725 5723 5722
5765 5764 5763 5763 5764 5763 5762 5761 5761 5760 5761 5760 5760 5759 5759 5759 5758 5757 5755 5752 5749 5747 5745 5744 5743 5742 5742 5741 5740 5739 5737 5736 5734 5733 5732 5731 5730 5728 5727 5725 5724 5722 5721
5763 5763 5764 5763 5763 5762 5761 5761 5761 5762 5761 5761 5759 5759 5758 5757 5757 5755 5755 5753 5752 5748 5746 5744 5743 5743 5741 5740 5739 5738 5736 5735 5734 5732 5731 5730 5729 5727 5726 5725 5723 5722 5720
5763 5763 5764 5763 5761 5762 5762 5762 5762 5761 5760 5759 5758 5758 5758 5756 5756 5755 5755 5753 5752 5751 5748 5745 5743 5742 5741 5739 5738 5737 5735 5734 5732 5731 5730 5729 5728 5727 5725 5724 5723 5721 5720
5763 5763 5763 5761 5761 5762 5762 5762 5761 5760 5757 5756 5757 5757 5757 5757 5755 5756 5754 5753 5752 5750 5749 5746 5744 5742 5740 5739 5737 5736 5734 5733 5731 5730 5729 5728 5727 5726 5725 5723 5722 5720 5718
5763 5763 5763 5761 5762 5762 5760 5759 5757 5757 5756 5755 5757 5756 5756 5756 5756 5755 5755 5754 5752 5751 5749 5747 5745 5744 5740 5738 5736 5735 5733 5732 5730 5729 5728 5727 5726 5725 5723 5722 5721 5719 5717
5764 5763 5764 5762 5762 5761 5759 5759 5758 5756 5755 5755 5754 5753 5754 5755 5754 5753 5754 5753 5753 5750 5748 5746 5745 5744 5742 5739 5736 5734 5732 5731 5729 5728 5727 5726 5725 5724 5722 5721 5719 5717 5715
5765 5765 5763 5763 5762 5760 5758 5756 5755 5754 5755 5755 5752 5750 5748 5749 5750 5753 5752 5751 5750 5749 5747 5746 5744 5741 5741 5739 5736 5733 5731 5729 5728 5726 5725 5724 5723 5722 5721 5719 5717 5715 5713
5766 5764 5763 5763 5761 5761 5759 5756 5754 5752 5751 5754 5753 5749 5744 5742 5745 5750 5749 5749 5748 5746 5746 5745 5743 5741 5739 5738 5735 5732 5729 5728 5726 5724 5723 5723 5722 5721 5719 5717 5715 5713 5711
5766 5764 5763 5762 5760 5761 5758 5757 5757 5754 5751 5751 5752 5750 5748 5747 5741 5741 5746 5747 5746 5744 5744 5744 5743 5740 5738 5736 5733 5730 5727 5725 5723 5722 5721 5720 5719 5718 5717 5715 5713 5711 5709
5767 5766 5764 5762 5760 5759 5758 5756 5755 5754 5753 5751 5751 5750 5748 5746 5745 5741 5738 5740 5743 5744 5743 5742 5741 5739 5737 5735 5732 5729 5725 5722 5721 5720 5719 5718 5717 5715 5714 5712 5710 5708 5706
5769 5767 5765 5762 5760 5759 5757 5755 5754 5753 5752 5750 5749 5749 5747 5745 5743 5742 5738 5738 5738 5741 5741 5740 5739 5737 5735 5733 5730 5726 5722 5720 5718 5716 5715 5714 5713 5712 5710 5708 5706 5705 5703
5770 5767 5766 5762 5761 5758 5757 5755 5753 5753 5752 5749 5748 5748 5748 5747 5745 5743 5739 5737 5737 5739 5737 5738 5737 5734 5733 5730 5727 5723 5720 5717 5715 5713 5711 5710 5709 5708 5706 5704 5702 5700 5698
5771 5768 5764 5762 5760 5758 5757 5755 5755 5753 5751 5748 5748 5746 5745 5746 5744 5741 5738 5735 5732 5735 5735 5734 5734 5731 5729 5727 5723 5719 5718 5714 5712 5710 5708 5705 5704 5703 5701 5699 5697 5695 5693
5770 5767 5764 5762 5759 5757 5755 5753 5752 5750 5748 5747 5747 5745 5743 5743 5742 5740 5738 5736 5731 5727 5728 5729 5728 5727 5725 5723 5719 5717 5715 5711 5708 5706 5703 5701 5699 5697 5695 5694 5691 5690 5688
5767 5765 5763 5761 5759 5756 5754 5752 5751 5748 5745 5744 5743 5740 5739 5740 5739 5737 5735 5733 5731 5727 5724 5726 5723 5723 5720 5719 5715 5713 5710 5707 5704 5701 5699 5696 5694 5692 5690 5688 5686 5684 5683
5766 5763 5761 5759 5757 5755 5753 5750 5749 5747 5744 5742 5740 5738 5736 5734 5734 5733 5732 5729 5727 5725 5719 5720 5720 5717 5714 5712 5711 5708 5707 5704 5701 5697 5695 5692 5690 5688 5686 5684 5682 5680 5678
5765 5762 5760 5757 5756 5754 5751 5748 5746 5744 5742 5739 5737 5735 5733 5732 5729 5728 5727 5725 5723 5721 5717 5713 5713 5711 5709 5707 5705 5703 5702 5701 5698 5694 5691 5689 5686 5684 5682 5679 5677 5675 5673
5763 5761 5758 5755 5753 5751 5749 5746 5743 5741 5739 5737 5734 5732 5730 5728 5725 5724 5722 5721 5720 5719 5715 5711 5709 5707 5705 5704 5701 5699 5698 5694 5694 5691 5688 5685 5682 5680 5677 5675 5673 5671 5668
5762 5759 5756 5753 5750 5748 5746 5743 5741 5738 5736 5734 5731 5729 5727 5724 5721 5719 5718 5716 5715 5712 5709 5707 5705 5703 5700 5699 5696 5694 5692 5691 5689 5688 5685 5681 5678 5675 5673 5671 5669 5667 5664
5760 5757 5753 5750 5748 5746 5743 5740 5737 5735 5732 5730 5728 5725 5723 5720 5716 5714 5714 5711 5709 5707 5705 5703 5701 5699 5696 5692 5691 5690 5687 5685 5684 5682 5680 5678 5676 5673 5671 5667 5664 5662 5659
5757 5754 5750 5747 5745 5743 5737 5733 5732 5731 5728 5726 5723 5721 5719 5716 5712 5708 5706 5704 5702 5701 5700 5697 5696 5693 5689 5688 5686 5684 5682 5679 5677 5677 5674 5674 5673 5671 5669 5666 5661 5657 5654
5753 5749 5747 5744 5741 5737 5732 5728 5725 5725 5724 5721 5719 5717 5717 5715 5709 5707 5702 5699 5697 5694 5692 5691 5690 5688 5686 5684 5680 5678 5674 5672 5670 5671 5668 5667 5668 5666 5664 5661 5656 5652 5648
5749 5745 5742 5739 5736 5732 5727 5723 5720 5720 5719 5717 5715 5712 5709 5707 5705 5701 5699 5697 5695 5693 5689 5687 5685 5683 5682 5679 5675 5672 5669 5666 5665 5664 5662 5660 5661 5659 5659 5655 5650 5646 5642
5744 5741 5738 5734 5731 5727 5722 5718 5714 5715 5714 5712 5710 5708 5704 5701 5696 5693 5692 5691 5689 5688 5685 5681 5678 5676 5674 5671 5669 5667 5664 5660 5658 5658 5657 5653 5653 5652 5651 5649 5644 5640 5637
5739 5737 5733 5730 5726 5722 5717 5713 5708 5711 5709 5707 5705 5703 5698 5694 5690 5686 5686 5684 5682 5682 5680 5678 5674 5670 5669 5666 5663 5661 5659 5655 5653 5651 5651 5646 5645 5644 5642 5642 5639 5635 5631